Saint Martin Island, Guadeloupe

9:01 PM AST on June 26, 2017 (GMT -0400)
Saint Martin Island

Weather History for 78866 - September, 2013

Change the Weather History Date:

Friday, September 27, 2013

  Actual Average Record
Temperature  
Mean Temperature 83 °F -  
Max Temperature 87 °F 86 °F - ()
Min Temperature 79 °F 76 °F - ()
Cooling Degree Days 18    
Growing Degree Days 33 (Base 50)    
Moisture  
Dew Point 75 °F    
Average Humidity 71    
Maximum Humidity 79    
Minimum Humidity 60    
Precipitation  
Precipitation 0.03 in 0.15 in - ()
Sea Level Pressure  
Sea Level Pressure 29.93 in    
Wind  
Wind Speed 7 mph ()    
Max Wind Speed 12 mph    
Max Gust Speed -    
Visibility 6.8 miles    
Events Rain    
T = Trace of Precipitation, MM = Missing Value Source: Averaged Metar Reports

Daily Weather History Graph

Daily Weather History Graph

Search for Another Location

Airport or City:

Trip Planner

Search our weather history database for the weather conditions in past years. The results will help you decide how hot, cold, wet, or windy it might be!

Date:

Astronomy

Sep. 27, 2013 Rise Set
Actual Time 6:02 AM AST 6:04 PM AST
Civil Twilight 5:40 AM AST 6:25 PM AST
Nautical Twilight 5:15 AM AST 6:51 PM AST
Astronomical Twilight 4:49 AM AST 7:16 PM AST
Moon No Moon Rise 12:55 PM AST
Length of Visible Light 12h 45m
Length of Day
12h 01m
Last Quarter, 45% of the Moon is Illuminated
Sep 27
Last Quarter
Oct 4
New
Oct 11
First Quarter
Oct 18
Full
Oct 26
Last Quarter

Hourly Weather History & Observations

Time (AST) Temp. Heat Index Dew Point Humidity Pressure Visibility Wind Dir Wind Speed Gust Speed Precip Events Conditions
12:00 AM 84.2 °F 92.3 °F 75.2 °F 74% 29.95 in 6.2 mi ESE 5.8 mph - N/A   Scattered Clouds
1:00 AM 84.2 °F 92.3 °F 75.2 °F 74% 29.92 in 6.2 mi ESE 5.8 mph - N/A   Partly Cloudy
2:00 AM 83 °F - 74 °F 69% 29.93 in 9 mi ESE 5.8 mph - - Rain Light Rain Showers
2:00 AM 84.2 °F 92.3 °F 75.2 °F 74% 29.92 in 6.2 mi ESE 5.8 mph - N/A Rain Light Rain Showers
3:00 AM 82.4 °F 89.5 °F 75.2 °F 79% 29.92 in 6.2 mi East 9.2 mph - N/A Rain Light Rain Showers
4:00 AM 82.4 °F 88.2 °F 73.4 °F 74% 29.92 in 6.2 mi SE 11.5 mph - N/A   Partly Cloudy
5:00 AM 83 °F - 75 °F 70% 29.94 in 19 mi ESE 6.9 mph - -   Partly Cloudy
5:00 AM 82.4 °F 89.5 °F 75.2 °F 79% 29.92 in 6.2 mi ESE 6.9 mph - N/A   Partly Cloudy
6:00 AM 82.4 °F 88.2 °F 73.4 °F 74% 29.95 in 6.2 mi SE 9.2 mph - N/A   Partly Cloudy
7:00 AM 84.2 °F 92.3 °F 75.2 °F 74% 29.95 in 6.2 mi SE 10.4 mph - N/A   Partly Cloudy
8:00 AM 85 °F - 75 °F 65% 29.97 in 44 mi SE 10.4 mph - -   Partly Cloudy
8:00 AM 84.2 °F 92.3 °F 75.2 °F 74% 29.95 in 6.2 mi ESE 10.4 mph - N/A   Partly Cloudy
9:00 AM 86.0 °F 95.1 °F 75.2 °F 70% 29.98 in 6.2 mi SE 10.4 mph - N/A   Partly Cloudy
10:00 AM 86.0 °F 95.1 °F 75.2 °F 70% 29.98 in 6.2 mi SE 10.4 mph - N/A   Partly Cloudy
11:00 AM 87 °F - 75 °F 60% 29.99 in 40 mi SSE 6.9 mph - -   Scattered Clouds
11:00 AM 86.0 °F 95.1 °F 75.2 °F 70% 29.98 in 6.2 mi SE 8.1 mph - N/A   Partly Cloudy
12:00 PM 87.8 °F 97.6 °F 75.2 °F 66% 29.95 in 6.2 mi SE 6.9 mph - N/A   Partly Cloudy
1:00 PM 87.8 °F 97.6 °F 75.2 °F 66% 29.92 in 6.2 mi SE 9.2 mph - N/A   Scattered Clouds
2:00 PM 87 °F - 75 °F 60% 29.91 in 37 mi SSE 6.9 mph - -   Partly Cloudy
2:00 PM 87.8 °F 97.6 °F 75.2 °F 66% 29.89 in 6.2 mi SSE 6.9 mph - N/A   Scattered Clouds
3:00 PM 86.0 °F 95.1 °F 75.2 °F 70% 29.89 in 6.2 mi SSE 10.4 mph - N/A   Scattered Clouds
4:00 PM 86.0 °F 95.1 °F 75.2 °F 70% 29.89 in 6.2 mi SSE 8.1 mph - N/A   Scattered Clouds
5:00 PM 85 °F - 75 °F 65% 29.89 in 37 mi SSE 8.1 mph - -   Scattered Clouds
5:00 PM 86.0 °F 95.1 °F 75.2 °F 70% 29.89 in 6.2 mi SSE 8.1 mph - N/A   Scattered Clouds
6:00 PM 84.2 °F 92.3 °F 75.2 °F 74% 29.89 in 6.2 mi ESE 5.8 mph - N/A   Partly Cloudy
7:00 PM 84.2 °F 92.3 °F 75.2 °F 74% 29.92 in 6.2 mi ESE 3.5 mph - N/A   Partly Cloudy
8:00 PM 84 °F - 75 °F 68% 29.93 in 37 mi ESE 8.1 mph - -   Scattered Clouds
8:00 PM 84.2 °F 92.3 °F 75.2 °F 74% 29.92 in 6.2 mi ESE 8.1 mph - N/A   Partly Cloudy
9:00 PM 84.2 °F 92.3 °F 75.2 °F 74% 29.95 in 6.2 mi East 5.8 mph - N/A   Partly Cloudy
10:00 PM 84.2 °F 92.3 °F 75.2 °F 74% 29.95 in 6.2 mi East 4.6 mph - N/A   Partly Cloudy
11:00 PM 83 °F - 75 °F 71% 29.98 in 37 mi East 3.5 mph - -   Partly Cloudy
11:00 PM 82.4 °F 89.5 °F 75.2 °F 79% 29.98 in 6.2 mi East 3.5 mph - N/A   Scattered Clouds